Location: Chuathbaluk
(61.5726°N, 159.2454°W)
Time: 04:29:12
(UTC+00:00)

Transit 2A - Pass Details

Date: 02 December 2020
Orbit: 599 x 960 km, 66.7° (Epoch: 26 January)

Event Time Altitude Azimuth Distance (km) Brightness Sun altitude
Rises 12:23:32 0° 309° (NW) 3,354 - -45.7°
Reaches altitude 10° 12:26:36 10° 295° (WNW) 2,347 - -45.4°
Maximum altitude 12:30:29 21° 248° (WSW) 1,632 - -45.1°
Drops below altitude 10° 12:34:06 10° 200° (SSW) 2,162 - -44.8°
Sets 12:36:48 0° 184° (S) 3,014 - -44.6°
